Hourly Data Report for November 05, 2016

All times are specified in Local Standard Time (LST). Add 1 hour to adjust for Daylight Saving Time where and when it is observed.

VICTORIA UNIVERSITY CS
BRITISH COLUMBIA

48°27'25.200" N
123°18'16.600" W
60.10 m
1018598
71783
WYJ

Download Data

Hourly Data (November 2016)
Hourly Data Report for November 5, 2016
TIME Temp Definition
°C
Dew Point Definition
°C
Rel Hum Definition
%
Wind Dir Definition
10's deg

Wind Spd Definition
km/h
Visibility Definition
km
Stn Press Definition
kPa
Hmdx Definition


Wind Chill Definition


Weather Definition


00:00 11.3 10.0 91 1 8   100.34     LegendNANA
01:00 10.9 10.1 95 30 6   100.29     LegendNANA
02:00 11.8 10.6 93 29 9   100.31     LegendNANA
03:00 11.0 10.5 97 35 8   100.33     LegendNANA
04:00 11.5 11.2 98 32 2   100.36     LegendNANA
05:00 11.6 11.4 99 0 1   100.38     LegendNANA
06:00 11.2 11.0 99 13 2   100.28     LegendNANA
07:00 11.3 11.2 99 11 4   100.15     LegendNANA
08:00 11.5 11.3 99 29 2   100.23     LegendNANA
09:00 11.8 11.7 99 30 3   100.19     LegendNANA
10:00 11.6 11.5 99 1 4   100.23     LegendNANA
11:00 12.0 11.9 99 36 3   100.21     LegendNANA
12:00 12.1 11.9 99 13 3   100.19     LegendNANA
13:00 12.4 12.1 99 24 2   100.17     LegendNANA
14:00 11.8 11.2 96 0 1   100.17     LegendNANA
15:00 11.5 11.1 97 13 2   100.14     LegendNANA
16:00 11.1 10.8 98 17 4   100.17     LegendNANA
17:00 10.7 10.5 99 16 4   100.16     LegendNANA
18:00 10.5 10.3 99 16 2   100.16     LegendNANA
19:00 10.5 10.4 99 16 3   100.18     LegendNANA
20:00 10.6 10.5 99 14 1   100.19     LegendNANA
21:00 10.7 10.6 99 16 3   100.24     LegendNANA
22:00 10.6 10.5 99 10 2   100.28     LegendNANA
23:00 10.4 10.3 99 15 1   100.27     LegendNANA

Notes on Data Quality.

Legend

  • E = Estimated
  • M = Missing
  • NA = Not Available
Date modified: